K7ZQU-7 Weather Reports


Display with metric or nautical units.
time (UTC)temp
F
wind
direction
speed
MPH
gust
MPH
rain 1hr
in
rain 24hr
in
rain mn
in
humidity
%
barometer
mb
20260510041148 52 308 0.0 0.0 0.00 0.00 0.00 58 1017.9
20260510040650 53 308 0.0 0.0 0.00 0.00 0.00 57 1018.1
20260510035649 54 308 0.0 0.0 0.00 0.00 0.00 54 1017.9
20260510035150 55 308 0.0 0.0 0.00 0.00 0.00 53 1017.8
20260510034652 55 308 0.0 0.0 0.00 0.00 0.00 53 1017.8
20260510034153 56 308 0.0 0.0 0.00 0.00 0.00 51 1017.9
20260510033654 57 308 0.0 0.0 0.00 0.00 0.00 50 1017.8
20260510032653 58 308 0.0 0.0 0.00 0.00 0.00 48 1017.8
20260510031655 59 308 0.0 0.0 0.00 0.00 0.00 46 1017.8
20260510031157 60 308 0.0 0.0 0.00 0.00 0.00 44 1017.7
20260510030655 60 308 0.0 0.0 0.00 0.00 0.00 44 1017.8
20260510030156 61 308 0.0 0.0 0.00 0.00 0.00 43 1017.7
20260510025657 61 308 0.0 0.0 0.00 0.00 0.00 42 1017.7
20260510025158 62 308 0.0 0.0 0.00 0.00 0.00 41 1017.7
20260510024700 62 308 0.0 0.0 0.00 0.00 0.00 39 1017.8
20260510024158 62 308 0.0 0.0 0.00 0.00 0.00 39 1017.7
20260510023659 62 308 0.0 0.0 0.00 0.00 0.00 39 1017.8
20260510023200 63 308 0.0 0.0 0.00 0.00 0.00 38 1017.8
20260510022701 63 314 0.0 0.0 0.00 0.00 0.00 38 1017.8
20260510022202 64 301 1.0 5.0 0.00 0.00 0.00 37 1017.8
20260510021701 64 305 2.0 1.0 0.00 0.00 0.00 37 1017.8
20260510021202 65 319 2.0 3.0 0.00 0.00 0.00 36 1017.9
20260510020703 65 316 3.0 4.0 0.00 0.00 0.00 34 1017.9
20260510020204 66 336 2.0 4.0 0.00 0.00 0.00 33 1017.9
20260510015705 66 314 2.0 1.0 0.00 0.00 0.00 33 1017.9
20260510015203 66 315 4.0 4.0 0.00 0.00 0.00 31 1018.1
20260510014705 66 323 2.0 2.0 0.00 0.00 0.00 30 1017.9
20260510014206 67 319 3.0 5.0 0.00 0.00 0.00 29 1017.9
20260510013707 67 311 3.0 5.0 0.00 0.00 0.00 27 1017.9
20260510013208 67 294 1.0 3.0 0.00 0.00 0.00 28 1018.1
20260510012207 68 301 0.0 1.0 0.00 0.00 0.00 29 1018.2
20260510011708 68 302 1.0 1.0 0.00 0.00 0.00 27 1018.1
20260510011209 68 326 4.0 3.0 0.00 0.00 0.00 26 1018.1
20260510010710 68 333 2.0 4.0 0.00 0.00 0.00 27 1018.1
20260510010209 68 270 5.0 7.0 0.00 0.00 0.00 27 1018.1
20260510005710 69 281 4.0 2.0 0.00 0.00 0.00 26 1018.2
20260510005211 69 250 2.0 1.0 0.00 0.00 0.00 25 1018.1
20260510004712 69 302 3.0 3.0 0.00 0.00 0.00 24 1018.2
20260510004213 69 183 4.0 0.0 0.00 0.00 0.00 24 1018.2
20260510003711 69 329 4.0 4.0 0.00 0.00 0.00 24 1018.1
20260510003213 69 323 3.0 4.0 0.00 0.00 0.00 24 1017.9
20260510002714 68 302 2.0 3.0 0.00 0.00 0.00 24 1017.9
20260510002215 68 73 3.0 1.0 0.00 0.00 0.00 25 1018.1
20260510001716 68 188 0.0 1.0 0.00 0.00 0.00 23 1018.1
20260510001214 68 207 2.0 0.0 0.00 0.00 0.00 22 1018.1
20260510000715 68 49 2.0 0.0 0.00 0.00 0.00 22 1018.1
20260510000218 68 322 1.0 4.0 0.00 0.00 0.00 25 1017.9
20260509235718 67 197 0.0 0.0 0.00 0.00 0.00 24 1017.9
20260509235219 67 124 1.0 0.0 0.00 0.00 0.00 23 1018.1
20260509234717 68 100 3.0 4.0 0.00 0.00 0.00 23 1018.1
20260509234218 68 149 2.0 0.0 0.00 0.00 0.00 23 1018.2
20260509233719 67 221 2.0 0.0 0.00 0.00 0.00 23 1018.2
20260509233220 67 70 1.0 3.0 0.00 0.00 0.00 22 1018.2
20260509232722 68 90 2.0 4.0 0.00 0.00 0.00 22 1018.3
20260509232220 68 91 3.0 4.0 0.00 0.00 0.00 23 1018.2
20260509231721 68 37 1.0 5.0 0.00 0.00 0.00 23 1018.3
20260509231222 67 31 2.0 3.0 0.00 0.00 0.00 24 1018.4
20260509230723 67 346 2.0 2.0 0.00 0.00 0.00 24 1018.4
20260509230224 68 80 1.0 0.0 0.00 0.00 0.00 23 1018.6
20260509225224 67 96 0.0 0.0 0.00 0.00 0.00 25 1018.6
20260509224725 67 28 2.0 2.0 0.00 0.00 0.00 25 1018.6
20260509224226 67 115 2.0 1.0 0.00 0.00 0.00 26 1018.8
20260509223727 67 124 4.0 2.0 0.00 0.00 0.00 26 1018.8
20260509223225 67 65 0.0 0.0 0.00 0.00 0.00 28 1018.9
20260509222227 67 86 3.0 2.0 0.00 0.00 0.00 24 1018.9
20260509221728 68 172 2.0 3.0 0.00 0.00 0.00 25 1019.0
20260509221230 68 113 3.0 2.0 0.00 0.00 0.00 26 1019.0
20260509220728 68 104 4.0 2.0 0.00 0.00 0.00 26 1019.1
20260509215730 68 200 0.0 4.0 0.00 0.00 0.00 27 1019.2
20260509214732 68 160 3.0 0.0 0.00 0.00 0.00 24 1019.2
20260509213733 67 193 2.0 4.0 0.00 0.00 0.00 28 1019.4
20260509212734 67 214 5.0 3.0 0.00 0.00 0.00 27 1019.4
20260509211733 67 224 3.0 1.0 0.00 0.00 0.00 28 1019.4
20260509210735 67 39 3.0 1.0 0.00 0.00 0.00 28 1019.4
20260509210236 67 66 3.0 2.0 0.00 0.00 0.00 28 1019.5
20260509205737 67 53 1.0 5.0 0.00 0.00 0.00 27 1019.4
20260509205236 67 131 2.0 5.0 0.00 0.00 0.00 28 1019.4
20260509204238 66 90 2.0 7.0 0.00 0.00 0.00 30 1019.6
20260509203739 66 160 2.0 4.0 0.00 0.00 0.00 28 1019.4
20260509202738 66 35 5.0 5.0 0.00 0.00 0.00 29 1019.5
20260509201740 65 215 5.0 1.0 0.00 0.00 0.00 29 1019.6
20260509201242 65 252 2.0 2.0 0.00 0.00 0.00 29 1019.6
20260509200241 65 31 3.0 1.0 0.00 0.00 0.00 27 1019.6
20260509195243 64 42 4.0 2.0 0.00 0.00 0.00 28 1019.6
20260509194744 64 242 2.0 4.0 0.00 0.00 0.00 28 1019.7
20260509193744 63 176 3.0 1.0 0.00 0.00 0.00 25 1019.7
20260509193245 63 23 2.0 2.0 0.00 0.00 0.00 27 1019.6
20260509192746 63 150 3.0 1.0 0.00 0.00 0.00 27 1019.8
20260509192247 63 108 4.0 1.0 0.00 0.00 0.00 27 1019.7
20260509191748 63 103 6.0 2.0 0.00 0.00 0.00 28 1019.7
20260509191246 63 70 2.0 3.0 0.00 0.00 0.00 29 1019.7
20260509190748 62 172 3.0 2.0 0.00 0.00 0.00 30 1019.7
20260509190249 62 114 5.0 3.0 0.00 0.00 0.00 29 1019.6
20260509185750 62 127 4.0 6.0 0.00 0.00 0.00 29 1019.8
20260509184749 62 24 2.0 4.0 0.00 0.00 0.00 29 1019.7
20260509184250 61 359 2.0 5.0 0.00 0.00 0.00 31 1019.7
20260509183751 61 177 1.0 4.0 0.00 0.00 0.00 29 1019.7
20260509183252 61 343 5.0 4.0 0.00 0.00 0.00 28 1019.7
20260509182753 61 120 1.0 1.0 0.00 0.00 0.00 29 1019.7
20260509182251 60 113 2.0 1.0 0.00 0.00 0.00 28 1019.7
20260509181254 60 94 4.0 5.0 0.00 0.00 0.00 28 1019.7
20260509180255 59 96 2.0 5.0 0.00 0.00 0.00 30 1019.5
20260509175754 59 135 5.0 5.0 0.00 0.00 0.00 27 1019.5
20260509174756 59 169 2.0 3.0 0.00 0.00 0.00 30 1019.4
20260509174257 58 160 3.0 1.0 0.00 0.00 0.00 33 1019.5
20260509173758 58 104 4.0 1.0 0.00 0.00 0.00 34 1019.4
20260509173256 57 101 3.0 0.0 0.00 0.00 0.00 33 1019.4
20260509172757 57 108 5.0 5.0 0.00 0.00 0.00 34 1019.4
20260509172257 57 198 5.0 5.0 0.00 0.00 0.00 32 1019.4
20260509171758 57 240 3.0 3.0 0.00 0.00 0.00 31 1019.2
20260509170757 57 152 2.0 3.0 0.00 0.00 0.00 35 1019.2
20260509170258 56 69 4.0 1.0 0.00 0.00 0.00 35 1019.1
20260509165759 56 105 5.0 5.0 0.00 0.00 0.00 39 1019.1
20260509165300 56 48 2.0 5.0 0.00 0.00 0.00 42 1019.1
20260509164800 56 86 4.0 7.0 0.00 0.00 0.00 41 1019.1
20260509164259 56 197 2.0 5.0 0.00 0.00 0.00 43 1019.1
20260509163759 55 197 2.0 2.0 0.00 0.00 0.00 43 1019.1
20260509163300 55 193 3.0 3.0 0.00 0.00 0.00 43 1019.0
20260509162852 55 160 2.0 0.0 0.00 0.00 0.00 44 1019.1
20260509162801 55 160 2.0 0.0 0.00 0.00 0.00 44 1019.1
20260509162306 54 107 4.0 1.0 0.00 0.00 0.00 45 1019.2
20260509161800 54 94 3.0 1.0 0.00 0.00 0.00 46 1019.2
20260509161301 54 191 3.0 3.0 0.00 0.00 0.00 47 1019.2
20260509160802 53 201 3.0 6.0 0.00 0.00 0.00 48 1019.2
20260509160303 53 18 4.0 1.0 0.00 0.00 0.00 49 1019.1
20260509155804 53 120 1.0 6.0 0.00 0.00 0.00 51 1019.1
20260509155306 53 146 4.0 3.0 0.00 0.00 0.00 51 1019.1
20260509154803 52 124 3.0 1.0 0.00 0.00 0.00 52 1019.1
20260509153805 51 255 2.0 3.0 0.00 0.00 0.00 55 1018.9
20260509153306 51 143 3.0 1.0 0.00 0.00 0.00 54 1019.0
20260509152804 50 172 1.0 1.0 0.00 0.00 0.00 57 1018.9
20260509152306 50 132 2.0 0.0 0.00 0.00 0.00 57 1018.9
20260509151806 49 180 3.0 2.0 0.00 0.00 0.00 58 1018.9
20260509151307 49 104 4.0 0.0 0.00 0.00 0.00 56 1018.9
20260509150306 48 159 2.0 0.0 0.00 0.00 0.00 60 1018.9
20260509145806 47 205 2.0 1.0 0.00 0.00 0.00 61 1018.9
20260509145307 46 158 0.0 0.0 0.00 0.00 0.00 68 1018.9
20260509144808 45 183 3.0 3.0 0.00 0.00 0.00 69 1018.9
20260509144309 43 207 0.0 0.0 0.00 0.00 0.00 78 1019.0
20260509143807 41 94 1.0 1.0 0.00 0.00 0.00 79 1018.9
20260509143308 39 188 2.0 0.0 0.00 0.00 0.00 84 1018.9
20260509142809 37 177 2.0 2.0 0.00 0.00 0.00 89 1018.9
20260509142309 36 180 2.0 2.0 0.00 0.00 0.00 94 1018.9
20260509141810 35 252 2.0 2.0 0.00 0.00 0.00 96 1018.8
20260509141308 34 163 0.0 2.0 0.00 0.00 0.00 97 1018.8
20260509140809 33 236 0.0 0.0 0.00 0.00 0.00 97 1018.8
20260509140310 32 236 0.0 0.0 0.00 0.00 0.00 97 1018.6
20260509134810 31 236 0.0 0.0 0.00 0.00 0.00 97 1018.4
20260509134310 31 236 0.0 0.0 0.00 0.00 0.00 97 1018.4
20260509133811 30 236 0.0 0.0 0.00 0.00 0.00 97 1018.4
20260509132813 29 236 0.0 0.0 0.00 0.00 0.00 96 1018.4
20260509130814 29 236 0.0 0.0 0.00 0.00 0.00 96 1018.4
20260509130314 29 236 0.0 0.0 0.00 0.00 0.00 96 1018.4
20260509125813 29 236 0.0 0.0 0.00 0.00 0.00 96 1018.5
20260509125313 29 236 0.0 0.0 0.00 0.00 0.00 96 1018.5
20260509124814 29 236 0.0 0.0 0.00 0.00 0.00 96 1018.4
20260509123816 29 236 0.0 0.0 0.00 0.00 0.00 96 1018.5
20260509123314 29 236 0.0 0.0 0.00 0.00 0.00 96 1018.4
20260509122815 30 236 0.0 0.0 0.00 0.00 0.00 96 1018.4
20260509121817 30 236 0.0 0.0 0.00 0.00 0.00 96 1018.5
20260509120816 30 236 0.0 0.0 0.00 0.00 0.00 96 1018.6
20260509120317 30 236 0.0 0.0 0.00 0.00 0.00 96 1018.6
20260509115817 30 236 0.0 0.0 0.00 0.00 0.00 96 1018.8
20260509115318 30 236 0.0 0.0 0.00 0.00 0.00 96 1018.9
20260509114819 30 236 0.0 0.0 0.00 0.00 0.00 96 1018.9
20260509113818 30 236 0.0 0.0 0.00 0.00 0.00 95 1019.1
20260509112820 30 236 0.0 0.0 0.00 0.00 0.00 95 1019.4
20260509112321 31 236 0.0 0.0 0.00 0.00 0.00 95 1019.5
20260509111819 31 236 0.0 0.0 0.00 0.00 0.00 95 1019.5
20260509110821 31 236 0.0 0.0 0.00 0.00 0.00 95 1019.6
20260509110322 31 236 0.0 0.0 0.00 0.00 0.00 95 1019.6
20260509105823 31 236 0.0 0.0 0.00 0.00 0.00 95 1019.5
20260509105321 31 236 0.0 0.0 0.00 0.00 0.00 95 1019.6
20260509104822 31 236 0.0 0.0 0.00 0.00 0.00 95 1019.5
20260509104323 32 236 0.0 0.0 0.00 0.00 0.00 95 1019.5
20260509103325 32 236 0.0 0.0 0.00 0.00 0.00 94 1019.5
20260509102823 32 236 0.0 0.0 0.00 0.00 0.00 94 1019.5
20260509102324 32 236 0.0 0.0 0.00 0.00 0.00 93 1019.5
20260509101325 33 236 0.0 0.0 0.00 0.00 0.00 93 1019.5
20260509100324 33 236 0.0 0.0 0.00 0.00 0.00 93 1019.6
20260509095326 33 236 0.0 0.0 0.00 0.00 0.00 91 1019.7
20260509094827 33 236 0.0 0.0 0.00 0.00 0.00 91 1019.7
20260509094328 34 236 0.0 0.0 0.00 0.00 0.00 91 1019.8
20260509094008 34 236 0.0 0.0 0.00 0.00 0.00 91 1019.9
20260509093826 34 236 0.0 0.0 0.00 0.00 0.00 91 1019.9
20260509093327 34 236 0.0 0.0 0.00 0.00 0.00 91 1019.9
20260509092828 35 236 0.0 0.0 0.00 0.00 0.00 91 1020.1
20260509092329 35 236 0.0 0.0 0.00 0.00 0.00 91 1019.9
20260509091830 35 236 0.0 0.0 0.00 0.00 0.00 89 1020.1
20260509091328 35 236 0.0 0.0 0.00 0.00 0.00 89 1020.1
20260509090829 36 236 0.0 0.0 0.00 0.00 0.00 88 1020.2
20260509090329 36 236 0.0 0.0 0.00 0.00 0.00 88 1020.2
20260509085830 37 236 0.0 0.0 0.00 0.00 0.00 87 1020.3
20260509085331 37 236 0.0 0.0 0.00 0.00 0.00 87 1020.4
20260509084829 38 236 0.0 0.0 0.00 0.00 0.00 87 1020.4
20260509084330 38 236 0.0 0.0 0.00 0.00 0.00 87 1020.4
20260509083831 38 236 0.0 0.0 0.00 0.00 0.00 88 1020.4
20260509083332 38 236 0.0 0.0 0.00 0.00 0.00 87 1020.5
20260509082833 38 236 0.0 0.0 0.00 0.00 0.00 87 1020.5
20260509082331 39 236 0.0 0.0 0.00 0.00 0.00 87 1020.5
20260509081831 39 236 0.0 0.0 0.00 0.00 0.00 85 1020.5
20260509081332 40 259 0.0 0.0 0.00 0.00 0.00 85 1020.5
20260509080833 40 259 0.0 0.0 0.00 0.00 0.00 85 1020.5
20260509080334 40 259 0.0 0.0 0.00 0.00 0.00 86 1020.5
20260509075832 40 259 0.0 0.0 0.00 0.00 0.00 86 1020.5
20260509075538 40 259 0.0 0.0 0.00 0.00 0.00 86 1020.7
20260509075333 40 259 0.0 0.0 0.00 0.00 0.00 86 1020.7
20260509074834 40 259 0.0 0.0 0.00 0.00 0.00 86 1020.5
20260509074335 40 259 0.0 0.0 0.00 0.00 0.00 85 1020.5
20260509073836 40 259 0.0 0.0 0.00 0.00 0.00 85 1020.5
20260509073334 40 293 0.0 2.0 0.00 0.00 0.00 85 1020.4
20260509072835 40 266 1.0 1.0 0.00 0.00 0.00 85 1020.5
20260509072336 40 250 0.0 0.0 0.00 0.00 0.00 85 1020.5
20260509071837 40 274 1.0 2.0 0.00 0.00 0.00 85 1020.5
20260509071338 40 280 0.0 0.0 0.00 0.00 0.00 85 1020.5
20260509070836 40 287 2.0 5.0 0.00 0.00 0.00 85 1020.4
20260509070337 40 284 2.0 3.0 0.00 0.00 0.00 85 1020.4
20260509065838 40 298 3.0 1.0 0.00 0.00 0.00 85 1020.4
20260509065339 40 311 3.0 2.0 0.00 0.00 0.00 86 1020.4
20260509064840 40 314 3.0 2.0 0.00 0.00 0.00 86 1020.4
20260509064338 40 302 3.0 2.0 0.00 0.00 0.00 86 1020.5
20260509063839 40 305 2.0 2.0 0.00 0.00 0.00 86 1020.7
20260509063340 40 309 2.0 2.0 0.00 0.00 0.00 86 1020.7
20260509062841 40 295 2.0 2.0 0.00 0.00 0.00 85 1020.8
20260509062341 40 302 2.0 2.0 0.00 0.00 0.00 85 1020.9
20260509061840 40 301 2.0 2.0 0.00 0.00 0.00 85 1021.0
20260509061341 40 302 2.0 1.0 0.00 0.00 0.00 84 1021.0
20260509060841 40 321 2.0 2.0 0.00 0.00 0.00 84 1020.9
20260509060342 40 314 2.0 1.0 0.00 0.00 0.00 84 1020.9
20260509055843 40 316 2.0 2.0 0.00 0.00 0.00 84 1021.0
20260509055342 40 336 1.0 2.0 0.00 0.00 0.00 83 1021.1
20260509054843 40 312 1.0 1.0 0.00 0.00 0.00 83 1021.1
20260509053844 40 311 0.0 0.0 0.00 0.00 0.00 82 1021.1
20260509053345 40 311 0.0 0.0 0.00 0.00 0.00 81 1021.1
20260509052843 41 311 0.0 0.0 0.00 0.00 0.00 81 1021.1
20260509052344 41 309 0.0 1.0 0.00 0.00 0.00 80 1021.3
20260509051845 41 305 0.0 0.0 0.00 0.00 0.00 80 1021.3
20260509050847 42 298 0.0 0.0 0.00 0.00 0.00 80 1021.1
20260509045847 42 248 0.0 0.0 0.00 0.00 0.00 78 1021.3
20260509044905 43 248 0.0 0.0 0.00 0.00 0.00 77 1021.1
20260509044350 43 248 0.0 0.0 0.00 0.00 0.00 77 1021.1
20260509043848 43 248 0.0 0.0 0.00 0.00 0.00 77 1021.1
20260509043349 43 248 0.0 0.0 0.00 0.00 0.00 76 1021.1
20260509042850 44 248 0.0 0.0 0.00 0.00 0.00 76 1021.0
20260509041852 44 248 0.0 0.0 0.00 0.00 0.00 75 1021.1